Current weather by "City, St" or "zip code"  
 

Current Conditions: Houghton Lake, Roscommon County Airport, MI

Overcast


58.0 F

Last Updated on May 21 2022, 4:53 am EDT
Humidity: 90%
Wind Speed: S 8.1 mph
Barometer 29.82 in
Dewpoint: 55.0 F
Visibility: 10.00 mi
Precip: --
Heat Index: NA
Wind Chill: 56 F
Current conditions at:

Houghton Lake, Roscommon County Airport, MI (KHTL)

Lat: 44.35111 Lon: 84.67417

Local Radar Image active severe weather and emergency alerts image image weather storm and storm spotter reports image weather observation monitoring service image
Local
Radar
Active
Alerts
Storm Reports Obs
Monitoring

Sign-up For Email & Text Message Weather Alert Notification Services



Advertise Here

Observation History for Houghton Lake, Roscommon County Airport, MI


Time Wind
(mph)
Vis
(mi)
Weather Precip (in) Temperature (F) Relative
Humidity
Wind
Chill
(F)
Heat
Index
(F)
Pressure
Air Dwpt altimeter
(in)
sea level
(mb)
Rmks
4:53 am EDT S 8.1 10.00 Overcast -- 58.0 55.0 90% 56 NA 29.82 1009.5
3:53 am EDT NW 3.5 10.00 Overcast Trace 58.0 55.0 90% NA NA 29.77 1007.9
2:53 am EDT W 6.9 10.00 Overcast Trace 59.0 55.0 87% 58 NA 29.75 1007.1
1:53 am EDT SW 5.8 10.00 Overcast -- 59.0 55.0 87% 58 NA 29.75 1006.9
12:53 am EDT N 0.0 10.00 Mostly Cloudy Trace 57.0 55.0 93% NA NA 29.70 1005.1
11:53 pm EDT 3.5 10.00 Light Rain -- 58.0 55.0 90% NA NA 29.69 1004.9
10:53 pm EDT NW 5.8 10.00 Overcast -- 59.0 55.9 90% 58 NA 29.66 1004.1
9:53 pm EDT NW 6.9 10.00 Overcast -- 59.0 55.9 90% 58 NA 29.64 1003.5
8:53 pm EDT NW 3.5 10.00 Overcast -- 60.0 55.9 86% NA NA 29.61 1002.4
7:53 pm EDT NW 10.4 G 19.6 10.00 Overcast 00.04 60.0 57.0 90% 58 NA 29.59 1001.6
5:53 pm EDT SW 25.3 G 44.9 10.00 Mostly Cloudy and Breezy Trace 77.0 63.0 62% NA NA 29.47 997.2
4:53 pm EDT SW 15.0 G 26.5 10.00 Overcast Trace 78.0 63.0 60% NA NA 29.44 996.3
3:53 pm EDT SW 18.4 G 29.9 10.00 Light Rain -- 78.0 64.0 62% NA NA 29.42 995.7
2:53 pm EDT SW 13.8 G 26.5 10.00 Mostly Cloudy -- 80.0 64.0 58% NA 82 29.41 995.1
11:53 am EDT S 13.8 G 24.2 10.00 Fair -- 79.0 62.1 56% NA NA 29.44 996.3
10:53 am EDT S 11.5 10.00 Fair -- 77.0 63.0 62% NA NA 29.44 996.4
9:53 am EDT S 15.0 G 21.9 10.00 Fair -- 73.0 61.0 66% NA NA 29.44 996.6
8:53 am EDT S 11.5 G 20.7 10.00 Fair -- 69.0 60.1 73% NA NA 29.46 997.1
7:53 am EDT SW 11.5 G 20.7 10.00 Fair -- 68.0 59.0 73% NA NA 29.45 996.9
5:53 am EDT S 13.8 10.00 Fair -- 66.0 57.9 75% NA NA 29.43 996.1

Regional Weather Observation


Houghton Lake, Roscommon County Airport, MI (KHTL)

Overcast
58.0 F

Bellaire, Antrim County Airport, MI (KACB)

Fair
53.0 F

West Branch Community Airport, MI (KY31)

Overcast
60.0 F

Wexford County Airport, MI (KCAD)

Fair
53.0 F

Cherry Capital Airport, MI (KTVC)

Mostly Cloudy
56.0 F

Gaylord Regional Airport, MI (KGLR)

Light Rain and Breezy
82.0 F

Advertise Here


Advertise Here